Location: Taylor Dark Sky Site
(39.1017°N, 87.9564°W)
Time: 02:52:45
(UTC-05:00)

Amateur Radio Satellites - All Passes

Search period start: 29 July 2016 02:22
Search period end: 30 July 2016 02:22
Location: Taylor Dark Sky Site, 39.1017°N, 87.9564°W

Satellite Date Start Highest point End Downlink Frequencies (MHz)
Time Altitude Azimuth
PCSat 29 Jul 02:30:25 02:31:36 11° 39° (NE) 02:32:47 145.827
JUGNU 29 Jul 02:45:00 02:46:40 11° 179° (S) 02:48:20 437.505
ISS 29 Jul 02:47:10 02:50:11 34° 31° (NNE) 02:53:12 145.825
CUSAT 1 29 Jul 02:48:10 02:50:30 15° 96° (E) 02:52:34 437.405
GONETS M04 29 Jul 03:01:01 03:09:50 80° 266° (W) 03:18:39
Gurwin Techsat 1B 29 Jul 03:02:30 03:07:51 85° 103° (ESE) 03:13:11 435.225
KKS-1 29 Jul 03:05:44 03:09:16 24° 67° (ENE) 03:12:49 437.445
ITAMSAT 1 29 Jul 03:05:48 03:10:15 28° 96° (E) 03:14:40 435.822/435.867
Oscar 19 29 Jul 03:06:05 03:10:54 39° 290° (WNW) 03:15:41 437.125/150
SWISSCUBE 29 Jul 03:10:27 03:14:41 31° 263° (W) 03:18:56 437.505
JAS-2 29 Jul 03:17:21 03:18:54 11° 300° (WNW) 03:20:29 435.910
DANDE 29 Jul 03:27:56 03:32:01 22° 95° (E) 03:35:22 436.750
BEESAT 3 29 Jul 03:31:24 03:35:19 63° 242° (WSW) 03:39:13 437.485
BEESAT 29 Jul 03:32:20 03:35:58 21° 266° (W) 03:39:36 436.000
STARS 29 Jul 03:38:42 03:42:21 26° 68° (ENE) 03:46:02 437.465
BEESAT 2 29 Jul 03:41:31 03:45:33 85° 64° (ENE) 03:49:31 435.950
AO-7 29 Jul 03:48:37 03:56:05 35° 98° (E) 04:03:28 29.400- 29.500
MOZHAYETS 4 29 Jul 03:53:38 03:58:16 83° 78° (ENE) 04:02:55
ITUPSAT 1 29 Jul 03:58:53 04:00:44 12° 269° (W) 04:02:34 437.325
PCSat 29 Jul 04:10:46 04:16:09 60° 59° (ENE) 04:21:29 145.827
Cosmos 2499 29 Jul 04:15:07 04:21:47 33° 275° (W) 04:28:05 435.465 / 435.565
AIST 2 29 Jul 04:22:51 04:25:01 14° 43° (NE) 04:27:11 435.215
ISS 29 Jul 04:23:49 04:26:30 24° 228° (SW) 04:29:10 145.825
CUSAT 1 29 Jul 04:29:14 04:32:23 22° 281° (W) 04:35:02 437.405
KKS-1 29 Jul 04:41:47 04:45:40 30° 263° (W) 04:49:36 437.445
Gurwin Techsat 1B 29 Jul 04:44:54 04:47:02 12° 300° (WNW) 04:49:11 435.225
ITAMSAT 1 29 Jul 04:45:06 04:49:41 33° 292° (WNW) 04:54:15 435.822/435.867
GONETS M04 29 Jul 05:01:10 05:05:07 14° 284° (WNW) 05:09:06
SRMSAT 29 Jul 05:05:46 05:07:19 11° 180° (S) 05:08:51 437.500
DANDE 29 Jul 05:09:52 05:14:41 32° 281° (W) 05:18:27 436.750
STARS 29 Jul 05:14:54 05:18:37 26° 264° (W) 05:22:21 437.465
CUBESAT XI-V 29 Jul 05:18:41 05:23:18 78° 76° (ENE) 05:27:55 437.345
RS-15 29 Jul 05:20:38 05:29:57 31° 103° (ESE) 05:39:38 29.354- 29.394
BRITE-PL 29 Jul 05:40:36 05:44:00 18° 93° (E) 05:47:32 437.365/2234.400
AO-7 29 Jul 05:41:03 05:49:01 51° 296° (WNW) 05:56:55 29.400- 29.500
NOAA 18 29 Jul 05:54:56 05:57:26 13° 90° (E) 05:59:54 137.9125
PCSat 29 Jul 05:55:33 05:59:01 17° 255° (WSW) 06:02:28 145.827
HORYU 2 29 Jul 05:57:10 06:01:40 88° 109° (ESE) 06:06:06 437.375
AIST 2 29 Jul 05:59:48 06:03:57 69° 241° (WSW) 06:08:06 435.215
STRAND 1 29 Jul 06:03:35 06:06:43 16° 63° (ENE) 06:09:51 437.568
O/OREOS (USA 219) 29 Jul 06:04:09 06:08:35 51° 66° (ENE) 06:13:02 437.305
Cubesat XI-IV 29 Jul 06:16:27 06:20:31 22° 94° (E) 06:24:33 437.490
SO-50 29 Jul 06:21:50 06:23:15 11° 106° (ESE) 06:24:41 436.795
LilacSat-2 29 Jul 06:28:48 06:32:00 24° 96° (E) 06:35:09 437.200
GOMX 1 29 Jul 06:31:15 06:35:38 27° 95° (E) 06:40:11 467.674
CUTE-I 29 Jul 06:38:48 06:43:41 36° 98° (E) 06:48:32 437.470
Cosmos 2491 29 Jul 06:38:49 06:39:30 10° 56° (ENE) 06:40:11 435.465 / 435.565
NOAA 15 29 Jul 06:51:33 06:56:47 64° 101° (ESE) 07:02:01 137.62
BRITE-PL 29 Jul 07:17:52 07:22:37 50° 286° (WNW) 07:27:44 437.365/2234.400
RS-15 29 Jul 07:29:48 07:41:15 73° 305° (NW) 07:53:25 29.354- 29.394
NOAA 18 29 Jul 07:33:05 07:38:38 76° 286° (WNW) 07:44:08 137.9125
AO-7 29 Jul 07:38:14 07:39:48 11° 316° (NW) 07:41:22 29.400- 29.500
STRAND 1 29 Jul 07:40:17 07:45:22 61° 259° (W) 07:50:28 437.568
O/OREOS (USA 219) 29 Jul 07:45:09 07:47:30 14° 261° (W) 07:49:50 437.305
CINEMA 3 29 Jul 07:47:02 07:50:48 21° 93° (E) 07:54:29 145.822/145.860
DOVE 4 29 Jul 07:50:27 07:55:41 77° 102° (ESE) 08:00:59 437.250
Cubesat XI-IV 29 Jul 07:55:41 08:00:46 44° 290° (WNW) 08:05:47 437.490
SO-50 29 Jul 07:58:11 08:03:04 81° 303° (WNW) 08:07:57 436.795
LilacSat-2 29 Jul 08:03:12 08:06:09 21° 291° (WNW) 08:09:06 437.200
YUBILEINY 29 Jul 08:03:49 08:08:36 16° 77° (ENE) 08:13:23 435.215
GOMX 1 29 Jul 08:09:02 08:13:40 36° 289° (WNW) 08:18:32 467.674
CUTE-I 29 Jul 08:19:06 08:23:34 28° 294° (WNW) 08:28:00 437.470
CANX-2 29 Jul 08:26:16 08:30:18 43° 99° (E) 08:34:17 2200.000
Cosmos 2491 29 Jul 08:29:48 08:38:27 60° 79° (ENE) 08:47:05 435.465 / 435.565
NOAA 15 29 Jul 08:32:51 08:36:01 16° 298° (WNW) 08:39:11 137.62
CUTE 1.7 + AOD 2 29 Jul 08:39:10 08:43:18 53° 100° (E) 08:47:24 437.475
CUBEBUG 2 29 Jul 08:39:16 08:42:42 20° 93° (E) 08:46:03 437.445
HO-68 29 Jul 08:41:22 08:48:28 58° 102° (ESE) 08:55:30 435.675
PRISM 29 Jul 08:50:15 08:54:20 78° 258° (WSW) 08:58:24 437.425
UNISAT 6 29 Jul 09:04:39 09:06:45 13° 63° (ENE) 09:08:54 437.425
SEEDS 29 Jul 09:14:05 09:18:17 83° 281° (W) 09:22:25 437.485
NOAA 18 29 Jul 09:17:30 09:18:19 10° 304° (WNW) 09:19:09 137.9125
COMPASS 1 29 Jul 09:21:33 09:25:42 82° 102° (ESE) 09:29:49 437.405
CINEMA 3 29 Jul 09:23:20 09:28:04 42° 288° (WNW) 09:32:43 145.822/145.860
DOVE 4 29 Jul 09:30:10 09:32:43 14° 297° (WNW) 09:35:17 437.250
ANTELSAT 29 Jul 09:40:46 09:44:48 30° 69° (ENE) 09:48:53 437.575/2403.000
FUNcube-1 29 Jul 09:41:04 09:45:11 36° 97° (E) 09:49:12 145.935
SO-50 29 Jul 09:41:59 09:44:18 13° 320° (NW) 09:46:37 436.795
ZACube-1 29 Jul 09:43:14 09:47:30 41° 98° (E) 09:51:37 437.345
RS-15 29 Jul 09:46:49 09:56:21 27° 333° (NNW) 10:06:14 29.354- 29.394
AAUSAT CUBESAT 2 29 Jul 09:47:38 09:51:42 61° 285° (WNW) 09:55:45 437.432
UWE-3 29 Jul 09:47:45 09:52:22 75° 103° (ESE) 09:56:48 435.000/436.395/437.385
DELFI C3 29 Jul 09:51:32 09:54:31 20° 94° (E) 09:57:29 145.870
AUBIESAT-1 29 Jul 09:52:47 09:53:10 10° 94° (E) 09:53:35 437.475
YUBILEINY 29 Jul 09:55:12 10:04:00 87° 96° (E) 10:12:53 435.215
CANX-2 29 Jul 10:03:20 10:05:46 15° 294° (WNW) 10:08:12 2200.000
Cosmos 2504 29 Jul 10:10:32 10:18:34 41° 87° (E) 10:26:34 435.465 / 435.565
CUBEBUG 2 29 Jul 10:15:05 10:19:26 38° 289° (WNW) 10:23:38 437.445
CUTE 1.7 + AOD 2 29 Jul 10:16:49 10:18:40 13° 295° (WNW) 10:20:29 437.475
POPSAT HIP 1 29 Jul 10:17:20 10:17:44 10° 62° (ENE) 10:18:09 437.405
Oscar 11 29 Jul 10:20:08 10:24:27 71° 284° (WNW) 10:28:43 145.826/435.025
TIGRISAT 29 Jul 10:21:02 10:25:39 76° 76° (ENE) 10:30:21 435.000
Cosmos 2491 29 Jul 10:27:38 10:34:39 28° 277° (W) 10:41:42 435.465 / 435.565
HO-68 29 Jul 10:29:54 10:35:42 27° 299° (WNW) 10:41:30 435.675
QB50P2 29 Jul 10:36:06 10:39:03 18° 66° (ENE) 10:42:01 145.880/145.840
HUMSAT D 29 Jul 10:37:25 10:41:13 33° 97° (E) 10:44:57 437.325/437.525
UNISAT 6 29 Jul 10:38:16 10:42:52 66° 259° (WSW) 10:47:34 437.425
POLYITAN 1 29 Jul 10:38:41 10:41:41 19° 67° (ENE) 10:44:42 437.675
M-CUBED/EXP-1 PRIME 29 Jul 10:59:21 11:04:05 71° 107° (ESE) 11:08:43 437.505
ANTELSAT 29 Jul 11:17:35 11:21:27 26° 265° (W) 11:25:24 437.575/2403.000
FUNcube-1 29 Jul 11:17:58 11:21:09 19° 293° (WNW) 11:24:16 145.935
NANOSAT C BR1 29 Jul 11:18:17 11:22:21 48° 73° (ENE) 11:26:27 145.865
ZACube-1 29 Jul 11:20:27 11:23:24 18° 294° (WNW) 11:26:18 437.345
DUCHIFAT 1 29 Jul 11:21:22 11:25:25 48° 73° (ENE) 11:29:32 145.980
AUBIESAT-1 29 Jul 11:23:25 11:28:05 79° 290° (WNW) 11:32:40 437.475
DELFI C3 29 Jul 11:26:01 11:29:20 26° 290° (WNW) 11:32:38 145.870
BUGSAT 1 29 Jul 11:26:46 11:30:02 24° 68° (ENE) 11:33:22 437.445
UWE-3 29 Jul 11:26:58 11:28:06 11° 298° (WNW) 11:29:15 435.000/436.395/437.385
JAS-2 29 Jul 11:40:55 11:46:06 33° 69° (ENE) 11:50:52 435.910
QB50P1 29 Jul 11:41:57 11:46:11 84° 255° (WSW) 11:50:29 145.935-145.965
POPSAT HIP 1 29 Jul 11:48:40 11:52:54 72° 258° (WSW) 11:57:11 437.405
ESTCUBE 1 29 Jul 11:52:14 11:56:27 38° 98° (E) 12:00:38 437.505/2401.250
CUBEBUG 1 29 Jul 11:53:42 11:57:25 26° 96° (E) 12:01:08 437.445
YUBILEINY 29 Jul 11:56:11 12:01:59 19° 296° (WNW) 12:07:51 435.215
AO-85 29 Jul 11:56:19 11:58:13 12° 106° (ESE) 12:00:06 145.980
VELOX 1 29 Jul 11:58:56 12:02:38 25° 96° (E) 12:06:20 145.980
Cosmos 2504 29 Jul 12:03:26 12:11:48 45° 285° (WNW) 12:20:09 435.465 / 435.565
AIST 1 29 Jul 12:06:31 12:07:14 10° 84° (E) 12:07:56
RS-15 29 Jul 12:06:36 12:14:56 20° 9° (N) 12:23:21 29.354- 29.394
50 SAT 29 Jul 12:08:39 12:11:53 31° 97° (E) 12:15:07 437.505
QB50P2 29 Jul 12:10:39 12:14:34 36° 262° (W) 12:18:32 145.880/145.840
POLYITAN 1 29 Jul 12:13:17 12:17:12 35° 262° (W) 12:21:10 437.675
HUMSAT D 29 Jul 12:13:40 12:16:35 19° 293° (WNW) 12:19:27 437.325/437.525
DX 1 29 Jul 12:34:39 12:38:52 45° 100° (E) 12:43:04 434.975-435.025
M-CUBED/EXP-1 PRIME 29 Jul 12:35:34 12:37:59 14° 302° (WNW) 12:40:22 437.505
Oscar 19 29 Jul 12:43:05 12:47:31 31° 68° (ENE) 12:51:58 437.125/150
AISAT 29 Jul 12:43:29 12:47:58 86° 103° (ESE) 12:52:27 437.250
UKube-1 29 Jul 12:43:39 12:47:48 44° 99° (E) 12:51:57 .
Gurwin Techsat 1B 29 Jul 12:45:27 12:48:26 15° 61° (ENE) 12:51:25 435.225
NANOSAT C BR1 29 Jul 12:56:16 12:58:20 13° 268° (W) 13:00:24 145.865
DUCHIFAT 1 29 Jul 12:59:23 13:01:22 13° 268° (W) 13:03:23 145.980
BUGSAT 1 29 Jul 13:01:53 13:05:18 25° 264° (W) 13:08:46 437.445
SPROUT 29 Jul 13:12:01 13:16:22 82° 103° (ESE) 13:20:40 437.525
JAS-2 29 Jul 13:25:52 13:31:09 31° 262° (W) 13:36:01 435.910
ESTCUBE 1 29 Jul 13:29:48 13:32:58 19° 294° (WNW) 13:36:08 437.505/2401.250
CUBEBUG 1 29 Jul 13:29:55 13:33:37 26° 291° (WNW) 13:37:17 437.445
AO-85 29 Jul 13:32:39 13:38:04 88° 304° (NW) 13:43:16 145.980
VELOX 1 29 Jul 13:35:15 13:39:02 28° 291° (WNW) 13:42:48 145.980
AIST 1 29 Jul 13:40:04 13:44:14 56° 279° (W) 13:48:26
50 SAT 29 Jul 13:43:12 13:45:15 15° 293° (WNW) 13:47:16 437.505
TISAT 1 29 Jul 13:58:18 14:02:32 60° 101° (ESE) 14:06:43 437.305
GONETS M04 29 Jul 14:06:22 14:12:53 24° 81° (E) 14:19:24
DX 1 29 Jul 14:11:59 14:14:40 16° 295° (WNW) 14:17:21 434.975-435.025
ITUPSAT 1 29 Jul 14:20:24 14:23:40 18° 93° (E) 14:26:55 437.325
RS-15 29 Jul 14:20:48 14:32:16 41° 42° (NE) 14:43:37 29.354- 29.394
UKube-1 29 Jul 14:20:50 14:23:29 16° 295° (WNW) 14:26:08 .
Oscar 19 29 Jul 14:22:20 14:26:46 30° 264° (W) 14:31:14 437.125/150
ITAMSAT 1 29 Jul 14:22:28 14:27:18 40° 69° (ENE) 14:32:09 435.822/435.867
Gurwin Techsat 1B 29 Jul 14:22:28 14:27:46 69° 258° (WSW) 14:33:05 435.225
AO-7 29 Jul 14:46:11 14:53:57 45° 63° (ENE) 15:01:44 29.400- 29.500
SO-50 29 Jul 14:53:27 14:54:07 10° 36° (NE) 14:54:48 436.795
Cosmos 2499 29 Jul 14:55:17 15:03:16 39° 87° (E) 15:11:03 435.465 / 435.565
CUSAT 1 29 Jul 15:00:36 15:03:45 50° 262° (W) 15:07:44 437.405
SWISSCUBE 29 Jul 15:10:59 15:15:45 72° 102° (ESE) 15:20:28 437.505
AO-85 29 Jul 15:16:06 15:19:12 16° 318° (NW) 15:22:14 145.980
PHONESAT 2.4 29 Jul 15:22:26 15:24:44 19° 150° (SSE) 15:27:03 2401.200-2431.200
BEESAT 29 Jul 15:32:05 15:36:51 77° 285° (WNW) 15:41:35 436.000
TISAT 1 29 Jul 15:36:02 15:37:39 12° 297° (WNW) 15:39:14 437.305
DANDE 29 Jul 15:48:22 15:50:54 36° 262° (W) 15:53:48 436.750
MOZHAYETS 4 29 Jul 15:50:37 15:54:02 21° 94° (E) 15:57:26
ITUPSAT 1 29 Jul 15:57:10 16:01:41 43° 289° (WNW) 16:06:10 437.325
GONETS M04 29 Jul 16:00:15 16:08:52 67° 280° (W) 16:17:34
ITAMSAT 1 29 Jul 16:02:42 16:06:52 24° 265° (W) 16:11:02 435.822/435.867
SO-50 29 Jul 16:30:57 16:35:34 65° 56° (ENE) 16:40:01 436.795
KKS-1 29 Jul 16:33:05 16:37:30 54° 100° (E) 16:41:53 437.445
RS-15 29 Jul 16:33:25 16:45:38 69° 246° (WSW) 16:57:35 29.354- 29.394
NOAA 15 29 Jul 16:35:08 16:36:45 11° 59° (ENE) 16:38:23 137.62
AO-7 29 Jul 16:38:58 16:46:41 41° 261° (W) 16:54:29 29.400- 29.500
Cosmos 2499 29 Jul 16:47:47 16:56:12 46° 284° (WNW) 17:04:25 435.465 / 435.565
SWISSCUBE 29 Jul 16:51:01 16:52:55 12° 298° (WNW) 16:54:49 437.505
BRITE-PL 29 Jul 16:52:09 16:54:21 14° 65° (ENE) 16:56:33 437.365/2234.400
HORYU 2 29 Jul 16:53:39 16:58:06 70° 75° (ENE) 17:02:36 437.375
PHONESAT 2.4 29 Jul 16:57:53 17:00:57 80° 165° (SSE) 17:04:02 2401.200-2431.200
STARS 29 Jul 17:04:29 17:08:53 58° 101° (E) 17:13:14 437.465
LilacSat-2 29 Jul 17:11:31 17:12:52 12° 65° (ENE) 17:14:14 437.200
CUBESAT XI-V 29 Jul 17:17:04 17:20:33 21° 94° (E) 17:24:02 437.345
NOAA 18 29 Jul 17:19:10 17:23:32 24° 64° (ENE) 17:27:56 137.9125
BEESAT 3 29 Jul 17:21:11 17:24:29 26° 113° (ESE) 17:27:48 437.485
MOZHAYETS 4 29 Jul 17:27:08 17:31:17 35° 289° (WNW) 17:35:24
BEESAT 2 29 Jul 17:33:19 17:36:07 19° 111° (ESE) 17:38:56 435.950
Cubesat XI-IV 29 Jul 17:37:04 17:41:49 33° 68° (ENE) 17:46:36 437.490
GOMX 1 29 Jul 17:39:29 17:42:38 21° 67° (ENE) 17:45:52 467.674
CUTE-I 29 Jul 17:59:18 18:04:31 53° 71° (ENE) 18:09:44 437.470
GONETS M04 29 Jul 18:04:36 18:07:34 12° 302° (WNW) 18:10:32
NOAA 15 29 Jul 18:10:29 18:15:44 90° 77° (ENE) 18:21:00 137.62
KKS-1 29 Jul 18:11:10 18:13:35 14° 296° (WNW) 18:16:01 437.445
SO-50 29 Jul 18:13:30 18:15:25 12° 253° (WSW) 18:17:18 436.795
BRITE-PL 29 Jul 18:28:31 18:32:28 43° 261° (W) 18:36:28 437.365/2234.400
PHONESAT 2.4 29 Jul 18:34:28 18:37:32 64° 1° (N) 18:40:36 2401.200-2431.200
STARS 29 Jul 18:42:37 18:44:43 13° 297° (WNW) 18:46:48 437.465
LilacSat-2 29 Jul 18:42:56 18:46:42 50° 261° (W) 18:50:30 437.200
CINEMA 3 29 Jul 18:48:15 18:51:04 16° 64° (ENE) 18:53:58 145.822/145.860
RS-15 29 Jul 18:50:26 18:55:39 14° 266° (W) 19:00:50 29.354- 29.394
PCSat 29 Jul 18:50:58 18:56:21 71° 115° (ESE) 19:01:45 145.827
CUBESAT XI-V 29 Jul 18:53:48 18:58:01 36° 289° (WNW) 19:02:12 437.345
DOVE 4 29 Jul 18:55:01 18:59:16 63° 75° (ENE) 19:03:48 437.250
NOAA 18 29 Jul 18:58:37 19:03:53 45° 260° (W) 19:09:12 137.9125
BEESAT 3 29 Jul 18:58:49 19:02:06 25° 310° (NW) 19:05:25 437.485
HO-68 29 Jul 19:08:49 19:15:20 39° 64° (ENE) 19:21:51 435.675
BEESAT 2 29 Jul 19:10:03 19:13:42 34° 307° (NW) 19:17:21 435.950
GOMX 1 29 Jul 19:16:50 19:20:31 30° 264° (W) 19:24:23 467.674
Cubesat XI-IV 29 Jul 19:17:10 19:21:50 30° 264° (W) 19:26:33 437.490
CANX-2 29 Jul 19:18:02 19:21:39 27° 70° (ENE) 19:25:16 2200.000
ISS 29 Jul 19:26:33 19:28:48 18° 131° (SE) 19:31:03 145.825
CUTE 1.7 + AOD 2 29 Jul 19:30:40 19:34:29 33° 71° (ENE) 19:38:18 437.475
CUBEBUG 2 29 Jul 19:36:43 19:39:31 16° 64° (ENE) 19:42:20 437.445
Cosmos 2491 29 Jul 19:40:15 19:42:37 11° 74° (ENE) 19:44:58 435.465 / 435.565
CUTE-I 29 Jul 19:41:11 19:44:50 18° 267° (W) 19:48:30 437.470
STRAND 1 29 Jul 19:51:56 19:56:54 50° 100° (E) 20:01:49 437.568
AIST 2 29 Jul 19:56:24 20:00:01 31° 114° (ESE) 20:03:40 435.215
SEEDS 29 Jul 20:04:17 20:08:25 56° 74° (ENE) 20:12:33 437.485
YUBILEINY 29 Jul 20:07:11 20:15:27 42° 74° (ENE) 20:23:37 435.215
Cosmos 2504 29 Jul 20:08:26 20:10:35 11° 58° (ENE) 20:12:44 435.465 / 435.565
COMPASS 1 29 Jul 20:10:54 20:14:53 45° 73° (ENE) 20:18:53 437.405
PHONESAT 2.4 29 Jul 20:11:01 20:14:05 62° 197° (SSW) 20:17:07 2401.200-2431.200
O/OREOS (USA 219) 29 Jul 20:15:05 20:19:32 77° 109° (ESE) 20:24:00 437.305
CINEMA 3 29 Jul 20:23:18 20:27:42 51° 261° (W) 20:32:21 145.822/145.860
PRISM 29 Jul 20:34:08 20:36:30 15° 93° (E) 20:38:53 437.425
FUNcube-1 29 Jul 20:35:19 20:39:06 26° 69° (ENE) 20:42:54 145.935
AAUSAT CUBESAT 2 29 Jul 20:36:12 20:40:20 72° 76° (ENE) 20:44:29 437.432
PCSat 29 Jul 20:36:32 20:40:17 19° 314° (NW) 20:44:02 145.827
DOVE 4 29 Jul 20:36:42 20:37:31 10° 272° (W) 20:38:19 437.250
ZACube-1 29 Jul 20:37:41 20:41:37 30° 70° (ENE) 20:45:37 437.345
DELFI C3 29 Jul 20:38:13 20:39:26 11° 65° (ENE) 20:40:39 145.870
UWE-3 29 Jul 20:42:59 20:47:26 52° 73° (ENE) 20:51:58 435.000/436.395/437.385
CANX-2 29 Jul 20:54:01 20:57:27 23° 265° (W) 21:00:54 2200.000
HO-68 29 Jul 20:56:20 21:02:56 40° 262° (W) 21:09:38 435.675
ISS 29 Jul 21:01:51 21:04:59 44° 326° (NW) 21:08:08 145.825
CUTE 1.7 + AOD 2 29 Jul 21:07:15 21:10:22 20° 266° (W) 21:13:29 437.475
CUBEBUG 2 29 Jul 21:11:08 21:15:38 53° 261° (W) 21:20:16 437.445
Oscar 11 29 Jul 21:13:16 21:17:35 74° 76° (ENE) 21:21:57 145.826/435.025
HUMSAT D 29 Jul 21:27:47 21:31:05 22° 68° (ENE) 21:34:24 437.325/437.525
Cosmos 2491 29 Jul 21:29:06 21:37:43 71° 93° (E) 21:46:23 435.465 / 435.565
STRAND 1 29 Jul 21:32:08 21:35:40 19° 296° (WNW) 21:39:12 437.568
AIST 2 29 Jul 21:35:07 21:38:30 24° 311° (NW) 21:41:55 435.215
SEEDS 29 Jul 21:43:11 21:44:26 11° 270° (W) 21:45:41 437.485
M-CUBED/EXP-1 PRIME 29 Jul 21:44:46 21:48:32 69° 71° (ENE) 21:52:42 437.505
PHONESAT 2.4 29 Jul 21:48:27 21:50:11 14° 213° (SSW) 21:51:55 2401.200-2431.200
COMPASS 1 29 Jul 21:48:35 21:50:40 13° 268° (W) 21:52:45 437.405
Cosmos 2504 29 Jul 21:57:46 22:05:49 68° 80° (E) 22:13:15 435.465 / 435.565
O/OREOS (USA 219) 29 Jul 21:58:08 21:59:30 11° 307° (NW) 22:00:52 437.305
YUBILEINY 29 Jul 22:04:06 22:12:09 42° 273° (W) 22:20:10 435.215
AO-85 29 Jul 22:06:21 22:10:39 54° 55° (NE) 22:14:36 145.980
PRISM 29 Jul 22:08:08 22:11:58 39° 288° (WNW) 22:15:48 437.425
AUBIESAT-1 29 Jul 22:08:17 22:12:07 76° 253° (WSW) 22:16:18 437.475
DELFI C3 29 Jul 22:09:54 22:13:48 54° 260° (W) 22:17:42 145.870
FUNcube-1 29 Jul 22:11:18 22:15:13 28° 264° (W) 22:19:11 145.935
ZACube-1 29 Jul 22:14:06 22:17:51 25° 265° (W) 22:21:39 437.345
TIGRISAT 29 Jul 22:15:02 22:18:06 18° 92° (E) 22:21:06 435.000
UWE-3 29 Jul 22:21:38 22:24:11 15° 269° (W) 22:26:45 435.000/436.395/437.385
UNISAT 6 29 Jul 22:31:41 22:35:40 28° 96° (E) 22:39:32 437.425
ISS 29 Jul 22:40:36 22:42:04 12° 345° (NNW) 22:43:32 145.825
50 SAT 29 Jul 22:46:30 22:48:17 13° 67° (ENE) 22:50:03 437.505
CUBEBUG 1 29 Jul 22:49:09 22:52:14 19° 67° (ENE) 22:55:19 437.445
ESTCUBE 1 29 Jul 22:50:43 22:54:40 31° 70° (ENE) 22:58:38 437.505/2401.250
VELOX 1 29 Jul 22:55:37 22:58:50 20° 67° (ENE) 23:02:03 145.980
HUMSAT D 29 Jul 23:02:42 23:06:31 30° 263° (W) 23:10:21 437.325/437.525
ANTELSAT 29 Jul 23:09:35 23:14:13 75° 102° (ESE) 23:18:41 437.575/2403.000
Cosmos 2491 29 Jul 23:28:42 23:35:20 24° 293° (WNW) 23:42:02 435.465 / 435.565
QB50P1 29 Jul 23:28:54 23:31:44 17° 93° (E) 23:34:32 145.935-145.965
DX 1 29 Jul 23:29:06 23:32:59 33° 70° (ENE) 23:36:53 434.975-435.025
POPSAT HIP 1 29 Jul 23:35:22 23:38:33 20° 94° (E) 23:41:41 437.405
UKube-1 29 Jul 23:37:07 23:40:57 32° 70° (ENE) 23:44:47 .
AISAT 29 Jul 23:39:28 23:43:47 65° 75° (ENE) 23:48:10 437.250
AIST 1 29 Jul 23:48:16 23:52:07 29° 77° (ENE) 23:55:57
AO-85 29 Jul 23:48:45 23:50:27 12° 253° (WSW) 23:52:06 145.980
TIGRISAT 29 Jul 23:50:37 23:54:58 41° 288° (WNW) 23:59:12 435.000
Cosmos 2504 29 Jul 23:52:43 23:58:14 21° 280° (W) 00:03:32 435.465 / 435.565
QB50P2 29 Jul 23:56:26 00:00:26 37° 98° (E) 00:04:24 145.880/145.840
POLYITAN 1 29 Jul 23:59:04 00:03:05 38° 98° (E) 00:07:04 437.675
SPROUT 30 Jul 00:04:10 00:08:18 52° 74° (ENE) 00:12:30 437.525
UNISAT 6 30 Jul 00:08:26 00:12:15 26° 292° (WNW) 00:16:00 437.425
50 SAT 30 Jul 00:18:10 00:21:34 37° 261° (W) 00:24:59 437.505
GONETS M04 30 Jul 00:20:31 00:21:33 10° 56° (ENE) 00:22:34
CUBEBUG 1 30 Jul 00:24:19 00:28:15 35° 262° (W) 00:32:14 437.445
ESTCUBE 1 30 Jul 00:27:57 00:31:29 23° 265° (W) 00:35:02 437.505/2401.250
VELOX 1 30 Jul 00:31:03 00:35:03 34° 262° (W) 00:39:05 145.980
JAS-2 30 Jul 00:34:31 00:39:17 30° 97° (E) 00:44:25 435.910
NANOSAT C BR1 30 Jul 00:39:09 00:43:26 77° 285° (WNW) 00:47:40 145.865
DUCHIFAT 1 30 Jul 00:41:56 00:46:12 77° 286° (WNW) 00:50:26 145.980
BUGSAT 1 30 Jul 00:43:55 00:48:02 47° 99° (E) 00:52:07 437.445
TISAT 1 30 Jul 00:48:45 00:52:37 37° 71° (ENE) 00:56:31 437.305
ANTELSAT 30 Jul 00:48:56 00:50:14 11° 299° (WNW) 00:51:31 437.575/2403.000
Oscar 19 30 Jul 00:57:53 00:59:21 11° 90° (E) 01:00:50 437.125/150
BEESAT 30 Jul 01:03:04 01:04:43 12° 61° (ENE) 01:06:23 436.000
QB50P1 30 Jul 01:03:40 01:07:38 38° 288° (WNW) 01:11:34 145.935-145.965
DX 1 30 Jul 01:06:05 01:09:14 20° 266° (W) 01:12:24 434.975-435.025
POPSAT HIP 1 30 Jul 01:10:32 01:14:22 32° 290° (WNW) 01:18:11 437.405
UKube-1 30 Jul 01:13:50 01:17:02 20° 265° (W) 01:20:14 .
AISAT 30 Jul 01:20:04 01:20:40 10° 270° (W) 01:21:18 437.250
ITUPSAT 1 30 Jul 01:26:12 01:29:39 20° 65° (ENE) 01:33:07 437.325
AIST 1 30 Jul 01:26:15 01:29:30 21° 272° (W) 01:32:45
QB50P2 30 Jul 01:33:01 01:35:57 18° 294° (WNW) 01:38:51 145.880/145.840
POLYITAN 1 30 Jul 01:35:41 01:38:35 18° 294° (WNW) 01:41:28 437.675
BEESAT 3 30 Jul 01:39:56 01:42:04 14° 44° (NE) 01:44:11 437.485
SPROUT 30 Jul 01:42:43 01:44:33 12° 269° (W) 01:46:23 437.525
BEESAT 2 30 Jul 01:53:08 01:54:12 11° 42° (NE) 01:55:17 435.950
ISS 30 Jul 01:54:29 01:57:06 22° 26° (NNE) 01:59:43 145.825
